�������l�o���
Date,Time,MP-1(��Sv/h),MP-2(��Sv/h),MP-3(��Sv/h),MP-4(��Sv/h),MP-5(��Sv/h),MP-6(��Sv/h),MP-7(��Sv/h),MP-8(��Sv/h),����,����(m/s),���J
2017/07/28,00:00,0.970,1.523,1.017,1.811,1.258,0.523,0.949,0.880,�k�k��,3.2,��
2017/07/28,00:10,0.970,1.524,1.017,1.812,1.256,0.521,0.952,0.878,�k�k��,3.3,��
2017/07/28,00:20,0.971,1.524,1.018,1.813,1.256,0.522,0.952,0.879,�k�k��,3.4,��
2017/07/28,00:30,0.970,1.526,1.018,1.812,1.258,0.522,0.952,0.879,�k�k��,2.9,��
2017/07/28,00:40,0.971,1.523,1.019,1.814,1.260,0.520,0.951,0.881,�k�k��,3.2,��
2017/07/28,00:50,0.970,1.524,1.018,1.813,1.257,0.522,0.953,0.880,�k�k��,3.4,��
2017/07/28,01:00,0.970,1.526,1.017,1.815,1.254,0.520,0.952,0.880,�k�k��,3.2,��
2017/07/28,01:10,0.972,1.523,1.019,1.813,1.261,0.521,0.951,0.880,�k�k��,3.1,��
2017/07/28,01:20,0.971,1.523,1.016,1.813,1.255,0.520,0.952,0.881,�k�k��,3.9,��
2017/07/28,01:30,0.970,1.523,1.019,1.814,1.256,0.520,0.952,0.881,�k�k��,3.9,��
2017/07/28,01:40,0.970,1.524,1.017,1.816,1.257,0.520,0.953,0.880,�k�k��,3.8,��
2017/07/28,01:50,0.972,1.521,1.017,1.813,1.256,0.520,0.953,0.882,�k,3.0,��
2017/07/28,02:00,0.970,1.524,1.018,1.815,1.257,0.522,0.951,0.880,�k�k��,2.9,��
2017/07/28,02:10,0.970,1.523,1.018,1.813,1.258,0.522,0.952,0.880,�k,1.1,��
2017/07/28,02:20,0.968,1.522,1.017,1.814,1.257,0.521,0.951,0.881,�k�k��,1.5,��
2017/07/28,02:30,0.971,1.521,1.019,1.814,1.257,0.522,0.952,0.881,�k�k��,1.5,��
2017/07/28,02:40,0.971,1.524,1.019,1.814,1.257,0.521,0.953,0.878,�k��,1.7,��
2017/07/28,02:50,0.970,1.523,1.017,1.815,1.258,0.521,0.952,0.880,�k�k��,1.4,��
2017/07/28,03:00,0.969,1.523,1.016,1.812,1.257,0.522,0.952,0.880,�k�k��,1.2,��
2017/07/28,03:10,0.972,1.520,1.019,1.814,1.258,0.521,0.949,0.882,�k�k��,1.2,��
2017/07/28,03:20,0.969,1.524,1.017,1.812,1.256,0.522,0.951,0.880,�k,1.4,��
2017/07/28,03:30,0.969,1.521,1.014,1.813,1.255,0.521,0.951,0.879,�k�k��,2.2,��
2017/07/28,03:40,0.967,1.520,1.016,1.813,1.257,0.522,0.952,0.879,�k�k��,2.0,��
2017/07/28,03:50,0.968,1.522,1.018,1.813,1.258,0.521,0.951,0.880,�k�k��,2.0,��
2017/07/28,04:00,0.968,1.521,1.017,1.815,1.256,0.520,0.951,0.880,�k�k��,2.6,��
2017/07/28,04:10,0.970,1.525,1.018,1.816,1.258,0.519,0.951,0.880,�k�k��,2.0,��
2017/07/28,04:20,0.970,1.526,1.015,1.814,1.257,0.520,0.950,0.879,�k,2.0,��
2017/07/28,04:30,0.969,1.524,1.018,1.810,1.257,0.520,0.952,0.881,�k,1.7,��
2017/07/28,04:40,0.967,1.523,1.018,1.815,1.256,0.520,0.952,0.880,�k�k��,1.4,��
2017/07/28,04:50,0.971,1.521,1.016,1.814,1.257,0.521,0.951,0.879,�k�k��,1.7,��
2017/07/28,05:00,0.969,1.523,1.015,1.812,1.259,0.521,0.952,0.881,�k�k��,1.4,��
2017/07/28,05:10,0.968,1.521,1.016,1.813,1.257,0.520,0.951,0.880,�k,1.2,��
2017/07/28,05:20,0.967,1.524,1.018,1.814,1.255,0.519,0.953,0.881,�k�k��,1.1,��
2017/07/28,05:30,0.972,1.523,1.018,1.813,1.255,0.519,0.954,0.880,�k��,1.5,��
2017/07/28,05:40,0.967,1.522,1.016,1.815,1.258,0.521,0.954,0.880,���k��,1.2,��
2017/07/28,05:50,0.970,1.524,1.016,1.815,1.256,0.521,0.954,0.881,�k��,1.4,��
2017/07/28,06:00,0.969,1.523,1.017,1.813,1.255,0.520,0.952,0.882,�k��,0.9,��
2017/07/28,06:10,0.970,1.522,1.017,1.813,1.258,0.521,0.952,0.880,�k,0.8,��
2017/07/28,06:20,0.970,1.523,1.016,1.813,1.258,0.522,0.952,0.881,�k,1.4,��
2017/07/28,06:30,0.969,1.522,1.015,1.814,1.256,0.521,0.952,0.880,�k�k��,2.0,��
2017/07/28,06:40,0.969,1.522,1.016,1.813,1.258,0.518,0.950,0.880,�k�k��,2.0,��
2017/07/28,06:50,0.970,1.522,1.014,1.812,1.256,0.521,0.951,0.877,�k�k��,1.5,��
2017/07/28,07:00,0.970,1.524,1.010,1.814,1.255,0.520,0.951,0.879,�k�k��,1.2,��
2017/07/28,07:10,0.969,1.521,0.984,1.814,1.255,0.519,0.951,0.880,�k�k��,1.5,��
2017/07/28,07:20,0.969,1.518,0.989,1.816,1.259,0.520,0.951,0.879,�k�k��,1.4,��
2017/07/28,07:30,0.971,1.520,0.987,1.817,1.257,0.519,0.952,0.878,�k�k��,1.7,��
2017/07/28,07:40,0.968,1.521,0.987,1.814,1.256,0.518,0.951,0.879,�k��,2.2,��
2017/07/28,07:50,0.969,1.521,0.986,1.817,1.255,0.517,0.952,0.878,�k��,2.3,��
2017/07/28,08:00,0.969,1.521,0.986,1.814,1.259,0.517,0.955,0.876,��,2.3,��
2017/07/28,08:10,0.969,1.519,0.981,1.813,1.257,0.518,0.952,0.875,�k��,1.4,��
2017/07/28,08:20,0.969,1.517,0.983,1.814,1.255,0.519,0.952,0.877,���k��,0.9,��
2017/07/28,08:30,0.970,1.520,0.984,1.815,1.256,0.520,0.952,0.876,���k��,0.9,��
2017/07/28,08:40,0.970,1.520,0.985,1.816,1.255,0.519,0.952,0.875,��,0.6,��
2017/07/28,08:50,0.969,1.522,0.985,1.815,1.258,0.519,0.952,0.876,��,1.1,��
2017/07/28,09:00,0.970,1.521,0.986,1.818,1.255,0.518,0.953,0.878,�쓌,1.1,��
2017/07/28,09:10,0.971,1.520,0.984,1.814,1.256,0.520,0.953,0.877,��,1.4,��
2017/07/28,09:20,0.971,1.522,0.988,1.817,1.256,0.519,0.952,0.877,�k�k��,1.5,��
2017/07/28,09:30,0.972,1.521,0.978,1.815,1.257,0.520,0.954,0.878,-,CALM,��
2017/07/28,09:40,0.973,1.522,0.978,1.816,1.257,0.521,0.954,0.879,�쓌,1.4,��
2017/07/28,09:50,0.973,1.520,0.982,1.816,1.260,0.521,0.953,0.878,���쓌,1.5,��
2017/07/28,10:00,0.973,1.523,0.979,1.814,1.261,0.520,0.954,0.877,���쓌,2.6,��
2017/07/28,10:10,0.975,1.522,0.981,1.813,1.261,0.522,0.955,0.878,���k��,2.3,��
2017/07/28,10:20,0.973,1.525,0.990,1.815,1.261,0.521,0.955,0.879,��,3.6,��
2017/07/28,10:30,0.975,1.527,1.005,1.814,1.260,0.520,0.952,0.877,��,3.2,��
2017/07/28,10:40,0.974,1.526,1.008,1.816,1.261,0.522,0.954,0.878,��,2.6,��
2017/07/28,10:50,0.975,1.528,1.008,1.815,1.262,0.521,0.954,0.878,���쓌,3.0,��
2017/07/28,11:00,0.974,1.527,1.009,1.818,1.263,0.522,0.953,0.878,���쓌,3.1,��
2017/07/28,11:10,0.977,1.527,1.009,1.816,1.261,0.520,0.952,0.879,���쓌,2.5,��
2017/07/28,11:20,0.975,1.527,1.011,1.816,1.260,0.522,0.954,0.877,���쓌,2.6,��
2017/07/28,11:30,0.974,1.526,1.011,1.813,1.264,0.521,0.953,0.879,���쓌,2.6,��
2017/07/28,11:40,0.976,1.529,1.013,1.816,1.265,0.522,0.954,0.879,���쓌,1.7,��
2017/07/28,11:50,0.975,1.530,1.010,1.817,1.263,0.523,0.953,0.877,��,2.2,��
2017/07/28,12:00,0.975,1.529,1.013,1.818,1.267,0.521,0.952,0.878,��,1.9,��
2017/07/28,12:10,0.976,1.531,1.011,1.813,1.265,0.524,0.954,0.879,���k��,2.0,��
2017/07/28,12:20,0.975,1.529,1.011,1.815,1.267,0.521,0.953,0.879,���k��,2.2,��
2017/07/28,12:30,0.976,1.530,1.013,1.813,1.266,0.523,0.954,0.877,���k��,2.3,��
2017/07/28,12:40,0.976,1.532,1.013,1.818,1.265,0.523,0.953,0.878,���k��,2.6,��
2017/07/28,12:50,0.976,1.530,1.014,1.819,1.267,0.523,0.953,0.878,��,2.0,��
2017/07/28,13:00,0.978,1.534,1.012,1.818,1.265,0.521,0.954,0.878,��,2.0,��
2017/07/28,13:10,0.976,1.532,1.013,1.817,1.268,0.522,0.955,0.880,���k��,1.7,��
2017/07/28,13:20,0.977,1.530,1.012,1.818,1.267,0.524,0.955,0.878,���k��,1.4,��
2017/07/28,13:30,0.976,1.532,1.014,1.817,1.267,0.522,0.954,0.880,��,1.5,��
2017/07/28,13:40,0.979,1.533,1.012,1.817,1.268,0.524,0.955,0.879,���쓌,2.3,��
2017/07/28,13:50,0.978,1.532,1.015,1.819,1.268,0.525,0.952,0.880,�쓌,2.6,��
2017/07/28,14:00,0.977,1.529,1.014,1.817,1.266,0.525,0.954,0.878,���k��,1.2,��
2017/07/28,14:10,0.977,1.532,1.015,1.817,1.266,0.523,0.954,0.878,�쓌,1.2,��
2017/07/28,14:20,0.978,1.530,1.014,1.819,1.266,0.524,0.954,0.880,���k��,1.4,��
2017/07/28,14:30,0.979,1.532,1.018,1.820,1.271,0.524,0.953,0.878,�쓌,1.5,��
2017/07/28,14:40,0.979,1.533,1.015,1.818,1.267,0.524,0.955,0.879,���쓌,1.9,��
2017/07/28,14:50,0.977,1.534,1.016,1.821,1.271,0.524,0.955,0.878,�쓌,2.3,��
2017/07/28,15:00,0.975,1.533,1.017,1.821,1.269,0.522,0.955,0.879,�쓌,1.4,��
2017/07/28,15:10,0.977,1.534,1.017,1.824,1.270,0.525,0.954,0.880,�쓌,1.4,��
2017/07/28,15:20,0.977,1.537,1.016,1.821,1.268,0.525,0.954,0.878,�쓌,0.9,��
2017/07/28,15:30,0.978,1.532,1.018,1.822,1.271,0.524,0.953,0.877,��쓌,1.5,��
2017/07/28,15:40,0.976,1.537,1.017,1.823,1.268,0.525,0.955,0.878,��쓌,2.0,��
2017/07/28,15:50,0.978,1.535,1.020,1.821,1.270,0.527,0.954,0.878,��쓌,2.6,��
2017/07/28,16:00,0.978,1.538,1.016,1.822,1.270,0.525,0.954,0.879,��쓌,2.3,��
2017/07/28,16:10,0.979,1.535,1.018,1.823,1.270,0.525,0.956,0.879,��쓌,2.0,��
2017/07/28,16:20,0.978,1.533,1.018,1.823,1.272,0.523,0.955,0.878,�쓌,1.7,��
2017/07/28,16:30,0.977,1.533,1.018,1.822,1.270,0.525,0.954,0.876,�쓌,3.6,��
2017/07/28,16:40,0.977,1.537,1.016,1.821,1.270,0.524,0.953,0.877,�쓌,3.7,��
2017/07/28,16:50,0.978,1.539,1.018,1.822,1.269,0.523,0.955,0.878,�쓌,3.4,��
2017/07/28,17:00,0.980,1.535,1.018,1.824,1.271,0.525,0.954,0.879,�쓌,3.1,��
2017/07/28,17:10,0.979,1.538,1.018,1.825,1.274,0.526,0.954,0.880,�쓌,3.2,��
2017/07/28,17:20,0.976,1.540,1.021,1.825,1.271,0.524,0.955,0.881,��쓌,0.8,��
2017/07/28,17:30,0.978,1.541,1.019,1.825,1.272,0.525,0.956,0.880,��쓌,2.0,��
2017/07/28,17:40,0.976,1.537,1.020,1.823,1.271,0.524,0.956,0.882,��쓌,2.2,��
2017/07/28,17:50,0.977,1.539,1.022,1.823,1.271,0.524,0.954,0.880,��쓌,3.5,��
2017/07/28,18:00,0.978,1.538,1.018,1.824,1.272,0.526,0.954,0.880,�쓌,3.8,��
2017/07/28,18:10,0.975,1.537,1.019,1.825,1.273,0.525,0.954,0.881,�쓌,2.3,��
2017/07/28,18:20,0.978,1.540,1.021,1.825,1.267,0.527,0.956,0.881,��쓌,2.8,��
2017/07/28,18:30,0.977,1.539,1.019,1.823,1.272,0.525,0.958,0.882,��,3.3,��
2017/07/28,18:40,0.980,1.539,1.019,1.824,1.269,0.526,0.956,0.881,��,3.6,��
2017/07/28,18:50,0.979,1.539,1.019,1.825,1.271,0.525,0.958,0.881,��,4.1,��
2017/07/28,19:00,0.978,1.539,1.019,1.822,1.270,0.526,0.955,0.883,��,5.1,��
2017/07/28,19:10,0.978,1.537,1.021,1.825,1.272,0.526,0.956,0.882,��,5.5,��
2017/07/28,19:20,0.980,1.538,1.020,1.826,1.273,0.527,0.956,0.881,��쓌,4.7,��
2017/07/28,19:30,0.980,1.536,1.021,1.822,1.270,0.527,0.956,0.882,��쓌,4.6,��
2017/07/28,19:40,0.979,1.538,1.021,1.823,1.273,0.526,0.957,0.881,��,4.6,��
2017/07/28,19:50,0.980,1.536,1.022,1.824,1.272,0.524,0.957,0.883,��쓌,4.4,��
2017/07/28,20:00,0.979,1.539,1.020,1.825,1.271,0.525,0.955,0.880,��,5.2,��
2017/07/28,20:10,0.980,1.538,1.020,1.825,1.271,0.525,0.956,0.883,��,5.2,��
2017/07/28,20:20,0.976,1.538,1.018,1.827,1.272,0.526,0.956,0.880,��,5.0,��
2017/07/28,20:30,0.979,1.536,1.022,1.823,1.271,0.528,0.958,0.884,��쓌,5.0,��
2017/07/28,20:40,0.979,1.538,1.019,1.825,1.269,0.527,0.955,0.882,��쓌,4.8,��
2017/07/28,20:50,0.979,1.536,1.021,1.824,1.271,0.526,0.956,0.882,��쓌,4.8,��
2017/07/28,21:00,0.979,1.536,1.021,1.827,1.271,0.526,0.957,0.882,��쓌,4.8,��
2017/07/28,21:10,0.977,1.537,1.020,1.825,1.272,0.525,0.956,0.883,��쓌,4.8,��
2017/07/28,21:20,0.978,1.538,1.021,1.825,1.273,0.524,0.957,0.882,��쓌,4.0,��
2017/07/28,21:30,0.978,1.537,1.018,1.824,1.274,0.524,0.954,0.883,��쓌,4.0,��
2017/07/28,21:40,0.976,1.537,1.019,1.825,1.272,0.527,0.952,0.881,��,2.6,��
2017/07/28,21:50,0.978,1.540,1.021,1.825,1.273,0.525,0.956,0.882,��쐼,1.4,��
2017/07/28,22:00,0.978,1.537,1.019,1.823,1.273,0.525,0.957,0.881,��,0.8,��
2017/07/28,22:10,0.975,1.539,1.020,1.824,1.272,0.526,0.958,0.882,�쐼,1.2,��
2017/07/28,22:20,0.977,1.539,1.021,1.826,1.273,0.526,0.957,0.882,-,CALM,��
2017/07/28,22:30,0.979,1.538,1.019,1.823,1.271,0.527,0.958,0.883,-,CALM,��
2017/07/28,22:40,0.978,1.537,1.021,1.826,1.273,0.526,0.955,0.883,���k��,0.8,�L
2017/07/28,22:50,0.975,1.537,1.021,1.824,1.274,0.526,0.957,0.883,���k��,1.7,�L
2017/07/28,23:00,0.976,1.537,1.023,1.828,1.273,0.525,0.956,0.881,���k��,1.2,��
2017/07/28,23:10,0.979,1.539,1.020,1.825,1.272,0.526,0.956,0.883,�k�k��,1.4,�L
2017/07/28,23:20,0.978,1.539,1.020,1.827,1.276,0.525,0.959,0.881,�k�k��,0.9,�L
2017/07/28,23:30,0.976,1.535,1.020,1.825,1.274,0.527,0.955,0.883,-,CALM,�L
2017/07/28,23:40,0.977,1.537,1.021,1.824,1.272,0.526,0.957,0.881,�k��,1.4,�L
2017/07/28,23:50,0.978,1.538,1.021,1.827,1.271,0.525,0.955,0.881,�k��,2.0,�L
